Time,TemperatureF,DewpointF,PressureIn,WindDirection,WindDirectionDegrees,WindSpeedMPH,WindSpeedGustMPH,Humidity,HourlyPrecipIn,Conditions,Clouds,dailyrainin,SoftwareType,DateUTC
2013-06-01 00:06:00,36.7,18.9,29.90,SW,225,0.0,-999.0,48,-99.99,,,0.00,Acu-Link.com,2013-06-01 06:06:00,
2013-06-01 00:21:00,34.2,21.0,29.91,North,0,0.0,-999.0,58,-99.99,,,0.00,Acu-Link.com,2013-06-01 06:21:00,
2013-06-01 00:36:00,33.8,18.5,29.93,SW,225,0.0,-999.0,53,-99.99,,,0.00,Acu-Link.com,2013-06-01 06:36:00,
2013-06-01 00:52:00,33.4,18.6,29.93,West,270,0.0,-999.0,54,-99.99,,,0.00,Acu-Link.com,2013-06-01 06:52:00,
2013-06-01 01:07:00,32.4,18.9,29.92,WSW,247,0.0,-999.0,57,-99.99,,,0.00,Acu-Link.com,2013-06-01 07:07:00,
2013-06-01 01:22:00,31.3,21.3,29.93,SSW,202,0.0,-999.0,66,-99.99,,,0.00,Acu-Link.com,2013-06-01 07:22:00,
2013-06-01 01:38:00,30.6,23.3,29.94,WNW,292,0.0,-999.0,74,-99.99,,,0.00,Acu-Link.com,2013-06-01 07:38:00,
2013-06-01 01:53:00,29.7,21.8,29.93,NNW,337,1.7,-999.0,72,-99.99,,,0.00,Acu-Link.com,2013-06-01 07:53:00,
2013-06-01 02:10:00,30.0,21.8,29.94,West,270,0.0,-999.0,71,-99.99,,,0.00,Acu-Link.com,2013-06-01 08:10:00,
2013-06-01 02:25:00,30.0,21.1,29.93,West,270,0.0,-999.0,69,-99.99,,,0.00,Acu-Link.com,2013-06-01 08:25:00,
2013-06-01 02:40:00,31.1,21.1,29.94,North,0,0.0,-999.0,66,-99.99,,,0.00,Acu-Link.com,2013-06-01 08:40:00,
2013-06-01 02:56:00,30.2,20.2,29.94,SW,225,1.1,-999.0,66,-99.99,,,0.00,Acu-Link.com,2013-06-01 08:56:00,
2013-06-01 03:11:00,29.5,21.3,29.94,NNW,337,0.0,-999.0,71,-99.99,,,0.00,Acu-Link.com,2013-06-01 09:11:00,
2013-06-01 03:26:00,29.1,20.6,29.95,NNW,337,0.0,-999.0,70,-99.99,,,0.00,Acu-Link.com,2013-06-01 09:26:00,
2013-06-01 03:41:00,28.4,20.2,29.96,WNW,292,0.0,-999.0,71,-99.99,,,0.00,Acu-Link.com,2013-06-01 09:41:00,
2013-06-01 03:57:00,29.5,21.3,29.96,SSW,202,0.0,-999.0,71,-99.99,,,0.00,Acu-Link.com,2013-06-01 09:57:00,
2013-06-01 04:12:00,28.4,21.5,29.96,SSW,202,1.7,-999.0,75,-99.99,,,0.00,Acu-Link.com,2013-06-01 10:12:00,
2013-06-01 04:27:00,27.0,17.9,29.96,South,180,0.0,-999.0,68,-99.99,,,0.00,Acu-Link.com,2013-06-01 10:27:00,
2013-06-01 04:42:00,27.3,17.5,29.97,West,270,0.0,-999.0,66,-99.99,,,0.00,Acu-Link.com,2013-06-01 10:42:00,
2013-06-01 04:58:00,28.4,18.2,29.97,WSW,247,0.0,-999.0,65,-99.99,,,0.00,Acu-Link.com,2013-06-01 10:58:00,
2013-06-01 05:13:00,27.5,18.7,29.98,SW,225,0.0,-999.0,69,-99.99,,,0.00,Acu-Link.com,2013-06-01 11:13:00,
2013-06-01 05:28:00,26.2,20.3,29.99,WSW,247,0.0,-999.0,78,-99.99,,,0.00,Acu-Link.com,2013-06-01 11:28:00,
2013-06-01 05:44:00,26.1,19.3,30.00,NNW,337,0.0,-999.0,75,-99.99,,,0.00,Acu-Link.com,2013-06-01 11:44:00,
2013-06-01 05:59:00,27.0,20.2,29.99,SW,225,0.0,-999.0,75,-99.99,,,0.00,Acu-Link.com,2013-06-01 11:59:00,
2013-06-01 06:14:00,28.9,21.4,30.01,NNE,22,0.0,-999.0,73,-99.99,,,0.00,Acu-Link.com,2013-06-01 12:14:00,
2013-06-01 06:30:00,34.0,22.7,30.02,SW,225,0.0,-999.0,63,-99.99,,,0.00,Acu-Link.com,2013-06-01 12:30:00,
2013-06-01 06:45:00,38.7,24.8,30.02,SSW,202,1.7,-999.0,57,-99.99,,,0.00,Acu-Link.com,2013-06-01 12:45:00,
2013-06-01 07:00:00,39.0,25.1,30.02,SSW,202,3.2,-999.0,57,-99.99,,,0.00,Acu-Link.com,2013-06-01 13:00:00,
2013-06-01 07:15:00,44.2,27.2,30.02,West,270,2.7,-999.0,51,-99.99,,,0.00,Acu-Link.com,2013-06-01 13:15:00,
2013-06-01 07:30:00,49.8,27.6,30.02,ENE,67,0.0,-999.0,42,-99.99,,,0.00,Acu-Link.com,2013-06-01 13:30:00,
2013-06-01 07:46:00,52.0,29.0,30.02,NNE,22,2.7,-999.0,41,-99.99,,,0.00,Acu-Link.com,2013-06-01 13:46:00,
2013-06-01 08:01:00,55.0,26.4,30.02,SSW,202,0.0,-999.0,33,-99.99,,,0.00,Acu-Link.com,2013-06-01 14:01:00,
2013-06-01 08:16:00,58.1,27.6,30.03,SW,225,2.7,-999.0,31,-99.99,,,0.00,Acu-Link.com,2013-06-01 14:16:00,
2013-06-01 08:32:00,54.1,27.1,30.02,SSW,202,3.2,-999.0,35,-99.99,,,0.00,Acu-Link.com,2013-06-01 14:32:00,
2013-06-01 08:47:00,55.0,27.2,30.02,South,180,2.7,-999.0,34,-99.99,,,0.00,Acu-Link.com,2013-06-01 14:47:00,
2013-06-01 09:02:00,55.4,28.2,30.02,South,180,4.2,-999.0,35,-99.99,,,0.00,Acu-Link.com,2013-06-01 15:02:00,
2013-06-01 09:18:00,54.5,28.8,30.01,SSW,202,2.2,-999.0,37,-99.99,,,0.00,Acu-Link.com,2013-06-01 15:18:00,
2013-06-01 09:33:00,53.8,26.1,30.01,East,90,3.2,-999.0,34,-99.99,,,0.00,Acu-Link.com,2013-06-01 15:33:00,
2013-06-01 09:48:00,55.9,26.5,30.00,SW,225,3.7,-999.0,32,-99.99,,,0.00,Acu-Link.com,2013-06-01 15:48:00,
2013-06-01 10:03:00,56.7,27.2,30.00,WSW,247,3.2,-999.0,32,-99.99,,,0.00,Acu-Link.com,2013-06-01 16:03:00,
2013-06-01 10:18:00,59.4,28.8,30.01,South,180,5.8,-999.0,31,-99.99,,,0.00,Acu-Link.com,2013-06-01 16:18:00,
2013-06-01 10:34:00,59.0,25.1,30.01,SSE,157,1.7,-999.0,27,-99.99,,,0.00,Acu-Link.com,2013-06-01 16:34:00,
2013-06-01 10:49:00,60.4,26.3,30.00,ESE,112,1.7,-999.0,27,-99.99,,,0.00,Acu-Link.com,2013-06-01 16:49:00,
2013-06-01 11:04:00,61.3,26.1,29.99,South,180,2.7,-999.0,26,-99.99,,,0.00,Acu-Link.com,2013-06-01 17:04:00,
2013-06-01 11:19:00,63.5,28.0,29.99,South,180,5.3,-999.0,26,-99.99,,,0.00,Acu-Link.com,2013-06-01 17:19:00,
2013-06-01 11:50:00,62.8,23.4,29.99,South,180,2.7,-999.0,22,-99.99,,,0.00,Acu-Link.com,2013-06-01 17:50:00,
2013-06-01 12:06:00,64.8,26.1,29.97,South,180,5.3,-999.0,23,-99.99,,,0.00,Acu-Link.com,2013-06-01 18:06:00,
2013-06-01 12:22:00,62.4,26.1,29.99,SSE,157,6.3,-999.0,25,-99.99,,,0.00,Acu-Link.com,2013-06-01 18:22:00,
2013-06-01 12:39:00,65.5,26.7,29.97,SSE,157,5.8,-999.0,23,-99.99,,,0.00,Acu-Link.com,2013-06-01 18:39:00,
2013-06-01 12:57:00,66.9,25.7,29.96,SW,225,6.8,-999.0,21,-99.99,,,0.00,Acu-Link.com,2013-06-01 18:57:00,
2013-06-01 13:12:00,66.4,24.1,29.95,SSE,157,7.3,-999.0,20,-99.99,,,0.00,Acu-Link.com,2013-06-01 19:12:00,
2013-06-01 13:27:00,69.1,27.5,29.95,SE,135,6.3,-999.0,21,-99.99,,,0.00,Acu-Link.com,2013-06-01 19:27:00,
2013-06-01 13:51:00,69.1,27.5,29.95,WNW,292,3.2,-999.0,21,-99.99,,,0.00,Acu-Link.com,2013-06-01 19:51:00,
2013-06-01 14:28:00,65.7,26.9,29.93,East,90,1.1,-999.0,23,-99.99,,,0.00,Acu-Link.com,2013-06-01 20:28:00,
2013-06-01 14:47:00,69.4,27.8,29.93,SSE,157,4.2,-999.0,21,-99.99,,,0.00,Acu-Link.com,2013-06-01 20:47:00,
2013-06-01 15:02:00,70.3,11.2,29.93,NNE,22,0.0,-999.0,10,-99.99,,,0.00,Acu-Link.com,2013-06-01 21:02:00,
2013-06-01 15:17:00,70.3,15.3,29.92,West,270,5.3,-999.0,12,-99.99,,,0.00,Acu-Link.com,2013-06-01 21:17:00,
2013-06-01 15:32:00,70.7,-8.1,29.93,SE,135,3.2,-999.0,4,-99.99,,,0.00,Acu-Link.com,2013-06-01 21:32:00,
2013-06-01 15:47:00,70.0,-34.8,29.93,West,270,1.7,-999.0,1,-99.99,,,0.00,Acu-Link.com,2013-06-01 21:47:00,
2013-06-01 16:03:00,72.9,-12.4,29.90,South,180,6.3,-999.0,3,-99.99,,,0.00,Acu-Link.com,2013-06-01 22:03:00,
2013-06-01 16:18:00,71.8,-33.7,29.91,NE,45,4.2,-999.0,1,-99.99,,,0.00,Acu-Link.com,2013-06-01 22:18:00,
2013-06-01 16:33:00,73.2,-32.9,29.91,ESE,112,2.2,-999.0,1,-99.99,,,0.00,Acu-Link.com,2013-06-01 22:33:00,
2013-06-01 16:48:00,72.0,-33.6,29.89,SSW,202,2.2,-999.0,1,-99.99,,,0.00,Acu-Link.com,2013-06-01 22:48:00,
2013-06-01 17:03:00,71.4,-34.0,29.89,SW,225,5.3,-999.0,1,-99.99,,,0.00,Acu-Link.com,2013-06-01 23:03:00,
2013-06-01 17:19:00,71.1,-34.2,29.90,WSW,247,4.2,-999.0,1,-99.99,,,0.00,Acu-Link.com,2013-06-01 23:19:00,
2013-06-01 17:34:00,70.5,-34.5,29.89,SSW,202,2.7,-999.0,1,-99.99,,,0.00,Acu-Link.com,2013-06-01 23:34:00,
2013-06-01 17:49:00,72.0,-33.6,29.88,West,270,4.2,-999.0,1,-99.99,,,0.00,Acu-Link.com,2013-06-01 23:49:00,
2013-06-01 18:05:00,71.8,-33.7,29.88,SW,225,5.8,-999.0,1,-99.99,,,0.00,Acu-Link.com,2013-06-02 00:05:00,
2013-06-01 18:20:00,69.4,-35.2,29.89,South,180,5.3,-999.0,1,-99.99,,,0.00,Acu-Link.com,2013-06-02 00:20:00,
2013-06-01 18:35:00,66.9,24.5,29.88,SSE,157,5.3,-999.0,20,-99.99,,,0.00,Acu-Link.com,2013-06-02 00:35:00,
2013-06-01 18:50:00,65.5,23.4,29.89,WSW,247,3.7,-999.0,20,-99.99,,,0.00,Acu-Link.com,2013-06-02 00:50:00,
2013-06-01 19:06:00,64.6,26.0,29.88,South,180,5.8,-999.0,23,-99.99,,,0.00,Acu-Link.com,2013-06-02 01:06:00,
2013-06-01 19:21:00,63.7,25.2,29.88,NNW,337,4.2,-999.0,23,-99.99,,,0.00,Acu-Link.com,2013-06-02 01:21:00,
2013-06-01 19:36:00,63.3,27.8,29.89,West,270,2.2,-999.0,26,-99.99,,,0.00,Acu-Link.com,2013-06-02 01:36:00,
2013-06-01 19:52:00,61.3,27.9,29.90,NNW,337,2.2,-999.0,28,-99.99,,,0.00,Acu-Link.com,2013-06-02 01:52:00,
2013-06-01 20:07:00,59.5,26.4,29.90,SW,225,1.7,-999.0,28,-99.99,,,0.00,Acu-Link.com,2013-06-02 02:07:00,
2013-06-01 20:22:00,57.7,27.3,29.90,NNW,337,2.2,-999.0,31,-99.99,,,0.00,Acu-Link.com,2013-06-02 02:22:00,
2013-06-01 20:37:00,55.8,28.6,29.90,SW,225,1.1,-999.0,35,-99.99,,,0.00,Acu-Link.com,2013-06-02 02:37:00,
2013-06-01 20:53:00,53.8,29.4,29.91,NNW,337,0.0,-999.0,39,-99.99,,,0.00,Acu-Link.com,2013-06-02 02:53:00,
2013-06-01 21:11:00,51.1,28.2,29.92,West,270,0.0,-999.0,41,-99.99,,,0.00,Acu-Link.com,2013-06-02 03:11:00,
2013-06-01 21:26:00,50.2,30.2,29.93,South,180,2.2,-999.0,46,-99.99,,,0.00,Acu-Link.com,2013-06-02 03:26:00,
2013-06-01 21:42:00,47.8,31.0,29.93,North,0,0.0,-999.0,52,-99.99,,,0.00,Acu-Link.com,2013-06-02 03:42:00,
2013-06-01 21:57:00,46.9,31.6,29.94,ENE,67,0.0,-999.0,55,-99.99,,,0.00,Acu-Link.com,2013-06-02 03:57:00,
2013-06-01 22:12:00,45.0,31.1,29.94,NW,315,0.0,-999.0,58,-99.99,,,0.00,Acu-Link.com,2013-06-02 04:12:00,
2013-06-01 22:28:00,43.9,29.7,29.95,NNW,337,0.0,-999.0,57,-99.99,,,0.00,Acu-Link.com,2013-06-02 04:28:00,
2013-06-01 22:43:00,42.4,29.1,29.96,WNW,292,0.0,-999.0,59,-99.99,,,0.00,Acu-Link.com,2013-06-02 04:43:00,
2013-06-01 22:58:00,41.4,30.5,29.95,SSW,202,0.0,-999.0,65,-99.99,,,0.00,Acu-Link.com,2013-06-02 04:58:00,
2013-06-01 23:14:00,40.8,30.7,29.97,SW,225,0.0,-999.0,67,-99.99,,,0.00,Acu-Link.com,2013-06-02 05:14:00,
2013-06-01 23:29:00,42.3,31.0,29.96,NNE,22,0.0,-999.0,64,-99.99,,,0.00,Acu-Link.com,2013-06-02 05:29:00,
2013-06-01 23:44:00,41.4,30.5,29.98,West,270,0.0,-999.0,65,-99.99,,,0.00,Acu-Link.com,2013-06-02 05:44:00,
2013-06-01 23:59:00,39.2,30.9,29.97,ESE,112,0.0,-999.0,72,-99.99,,,0.00,Acu-Link.com,2013-06-02 05:59:00,